sat.trackr.live / text

‹ back to catalog

IRIDIUM 130

NORAD 43073 · 2017-083D

PAYLOAD ACTIVE UNKNOWN

§ Identity

Operator
Country
US
Launch date
2017-12-23
Launch site
AFWTR
Launch vehicle
Mass (kg)
RCS (m²)

Purposes: comms

External: N2YO · Heavens-Above · Gunter

§ Orbital elements

Epoch: 2026-09-15T19:30:07.143552Z

Period
100.40 min
Inclination
86.3925°
Eccentricity
0.0002045
Mean motion
14.34217449 rev/d
Perigee alt
776.2 km
Apogee alt
779.1 km
Semi-major
7,155.8 km
B*
-1.1444e-5
RAAN
284.3973°
Arg perigee
86.7457°
Mean anomaly
273.3972°
Rev number
45,710

§ Raw data

IRIDIUM 1301 43073U 17083D   26258.81258268 -.00000012  00000+0 -11444-4 0  99912 43073  86.3925 284.3973 0002045  86.7457 273.3972 14.34217449457105

JSON: /api/v1/satellites/43073 · /tle

For live sub-satellite position, see the globe view (requires WebGL).

§ Visibility from observer

Set your observer location to see the next 7 days of passes ≥ 10°. The values pass through the URL so the page stays shareable.

No JS? Fill the form by hand. The geolocation button needs JavaScript.

§ Radio — SatNOGS DB

ModeDescriptionDownlinkUplink
FM Iridium 130 1.623 GHz

1 transmitter · refreshed weekly from db.satnogs.org